Content
SEND FEEDBACK

Daily
Averages
Monthly
Summary
United States of America

WRIGHTSVILLE BEACH, NORTH CAROLINA


Home > North America > United States > North Carolina
Elevation: 25 feet     Latitude: 34 16N     Longitude: 077 54W

WEATHER
 
SELECT A DAY
Number of Records: 209,103;   Date Range: 1/1/95 - 9/18/14
 
SHARE

PRINT THIS DATA

[ ← Previous Day ]
WEATHER ALMANAC - JUNE 18, 2014
[ Next Day → ]
[ °C ]   °F
Weather ElementAverageHighLow
Temperature82 °F93.9 °F (3:53 pm)73 °F (4:53 am)
Dewpoint67.8 °F72 °F (9:53 pm)57.9 °F (4:53 pm)
Humidity65.8 %91 % (2:31 am)31 % (4:53 pm)
Barometer30.12 in30.16 in (8:53 am)30.08 in (4:53 pm)
Wind Speed9.5 mph15 mph (4:53 pm)
Weather ElementAverage
Visibility10 mi
Wind DirectionSW (228.4 °)

Weather ElementTotal
Precipitation---
Cooling Degree Days18.5 (Base 65)
Growing Degree Days33.5 (Base 50)
Averaged from 25 records on June 18, 2014
WEATHER CONDITIONS BREAKOUT
WIND DIRECTION BREAKOUT
WEATHER BY HOUR - JUNE 18, 2014
[ °C ]   °F
Local TimeTemperatureDewpointHumidityBarometerVisibilityWind DirectionWind SpeedGust SpeedPrecipitationEventsConditions
1:53 AM75.0 °F71.1 °F87 %30.12 in10.0 miWest (280°)6.9 mphPartly Cloudy
2:12 AM75.0 °F71.1 °F87 %30.12 in10.0 miWest (260°)6.9 mphMostly Cloudy
2:31 AM73.9 °F71.1 °F91 %30.12 in10.0 miWSW (250°)8.1 mphPartly Cloudy
2:53 AM73.9 °F71.1 °F91 %30.12 in10.0 miWest (280°)5.8 mphClear
3:53 AM73.9 °F70.0 °F87 %30.11 in10.0 miWSW (250°)8.1 mphClear
4:53 AM73.0 °F70.0 °F90 %30.12 in10.0 miSW (230°)8.1 mphClear
5:53 AM73.4 °F69.8 °F88 %30.14 in10.0 miWSW (250°)5.8 mphClear
6:53 AM73.9 °F69.1 °F85 %30.14 in10.0 miWSW (240°)8.1 mphClear
7:53 AM75.9 °F70.0 °F82 %30.15 in10.0 miWSW (240°)10.4 mphClear
8:53 AM80.1 °F70.0 °F71 %30.16 in10.0 miWSW (250°)10.4 mphClear
9:53 AM84.0 °F68.0 °F58 %30.15 in10.0 miWSW (240°)8.1 mphClear
10:53 AM86.0 °F68.0 °F55 %30.15 in10.0 miSW (230°)10.4 mphClear
11:53 AM89.1 °F64.9 °F45 %30.14 in10.0 miSW (220°)10.4 mphClear
12:53 PM91.0 °F64.9 °F42 %30.13 in10.0 miSSW (210°)10.4 mphClear
1:53 PM91.9 °F63.0 °F38 %30.12 in10.0 miSSW (200°)5.8 mphClear
2:53 PM93.0 °F68.0 °F44 %30.11 in10.0 miSSW (200°)11.5 mphClear
3:53 PM93.9 °F60.1 °F32 %30.09 in10.0 miSouth (190°)10.4 mphClear
4:53 PM93.0 °F57.9 °F31 %30.08 in10.0 miSSW (200°)15.0 mphClear
5:53 PM91.0 °F61.0 °F36 %30.08 in10.0 miSSW (200°)11.5 mphClear
6:53 PM88.0 °F63.0 °F43 %30.08 in10.0 miSSW (210°)12.7 mphClear
7:53 PM84.9 °F66.0 °F53 %30.09 in10.0 miSW (230°)10.4 mphClear
8:53 PM81.0 °F70.0 °F69 %30.11 in10.0 miSW (220°)10.4 mphClear
9:53 PM79.0 °F72.0 °F79 %30.12 in10.0 miSSW (210°)9.2 mphClear
10:53 PM78.1 °F72.0 °F81 %30.12 in10.0 miSSW (210°)11.5 mphClear
11:53 PM78.1 °F72.0 °F81 %30.12 in10.0 miSSW (210°)10.4 mphClear
Hourly data recorded from KILM, located miles away from Wrightsville Beach, North Carolina







STORIES FROM OUR PARTNERS